Location: Heidgraben
(53.7081°N, 9.6576°E)
Time: 23:07:08
(UTC+00:00)

Cosmos 2333 Rocket - Pass Details

Date: 26 October 2020
Orbit: 841 x 861 km, 70.8° (Epoch: 28 November)

Event Time Altitude Azimuth Distance (km) Brightness Sun altitude
Exits shadow 04:32:55 - 327° (NNW) 3,138 4.8 -14.9°
Reaches altitude 10° 04:35:03 10° 338° (NNW) 2,486 4.4 -14.6°
Maximum altitude 04:39:30 23° 30° (NNE) 1,749 4.2 -13.9°
Drops below altitude 10° 04:43:54 10° 81° (E) 2,470 6.0 -13.3°
Sets 04:46:53 0° 96° (E) 3,400 7.5 -12.8°
